Time,TemperatureF,DewpointF,PressureIn,WindDirection,WindDirectionDegrees,WindSpeedMPH,WindSpeedGustMPH,Humidity,HourlyPrecipIn,Conditions,Clouds,dailyrainin,SoftwareType,DateUTC
2013-01-19 00:03:00,55.6,29.0,29.93,ENE,67,4.9,-999.0,36,0.00,,,0.00,Rainwise IP-100,2013-01-19 08:03:00,
2013-01-19 00:09:00,55.5,29.0,29.93,ENE,67,4.0,-999.0,36,0.00,,,0.00,Rainwise IP-100,2013-01-19 08:09:00,
2013-01-19 00:14:00,55.5,29.0,29.92,ENE,67,2.8,-999.0,35,0.00,,,0.00,Rainwise IP-100,2013-01-19 08:14:00,
2013-01-19 00:19:00,55.1,29.0,29.92,ENE,67,0.0,-999.0,36,0.00,,,0.00,Rainwise IP-100,2013-01-19 08:19:00,
2013-01-19 00:24:00,54.3,29.0,29.92,ENE,67,3.3,-999.0,37,0.00,,,0.00,Rainwise IP-100,2013-01-19 08:24:00,
2013-01-19 00:29:00,53.8,29.0,29.93,ENE,67,2.6,-999.0,37,0.00,,,0.00,Rainwise IP-100,2013-01-19 08:29:00,
2013-01-19 00:34:00,53.7,28.0,29.93,NE,45,2.3,-999.0,37,0.00,,,0.00,Rainwise IP-100,2013-01-19 08:34:00,
2013-01-19 00:39:00,53.7,28.0,29.93,ENE,67,2.3,-999.0,37,0.00,,,0.00,Rainwise IP-100,2013-01-19 08:39:00,
2013-01-19 00:44:00,53.7,28.0,29.92,NNE,22,2.6,-999.0,37,0.00,,,0.00,Rainwise IP-100,2013-01-19 08:44:00,
2013-01-19 00:50:00,54.0,29.0,29.92,ENE,67,2.6,-999.0,37,0.00,,,0.00,Rainwise IP-100,2013-01-19 08:50:00,
2013-01-19 00:55:00,54.0,29.0,29.92,ENE,67,4.0,-999.0,37,0.00,,,0.00,Rainwise IP-100,2013-01-19 08:55:00,
2013-01-19 01:00:00,53.8,29.0,29.92,ENE,67,4.2,-999.0,37,0.00,,,0.00,Rainwise IP-100,2013-01-19 09:00:00,
2013-01-19 01:05:00,53.6,28.0,29.93,East,90,2.3,-999.0,37,0.00,,,0.00,Rainwise IP-100,2013-01-19 09:05:00,
2013-01-19 01:10:00,53.2,28.0,29.92,East,90,0.0,-999.0,37,0.00,,,0.00,Rainwise IP-100,2013-01-19 09:10:00,
2013-01-19 01:15:00,52.7,28.0,29.93,NNE,22,0.0,-999.0,38,0.00,,,0.00,Rainwise IP-100,2013-01-19 09:15:00,
2013-01-19 01:20:00,52.5,28.0,29.92,ENE,67,3.0,-999.0,38,0.00,,,0.00,Rainwise IP-100,2013-01-19 09:20:00,
2013-01-19 01:25:00,52.1,28.0,29.93,ENE,67,3.0,-999.0,39,0.00,,,0.00,Rainwise IP-100,2013-01-19 09:25:00,
2013-01-19 01:30:00,51.8,28.0,29.93,East,90,0.0,-999.0,39,0.00,,,0.00,Rainwise IP-100,2013-01-19 09:30:00,
2013-01-19 01:35:00,51.7,28.0,29.93,ENE,67,1.9,-999.0,39,0.00,,,0.00,Rainwise IP-100,2013-01-19 09:35:00,
2013-01-19 01:40:00,51.4,28.0,29.93,ENE,67,2.1,-999.0,40,0.00,,,0.00,Rainwise IP-100,2013-01-19 09:40:00,
2013-01-19 01:45:00,51.1,28.0,29.92,ENE,67,2.8,-999.0,40,0.00,,,0.00,Rainwise IP-100,2013-01-19 09:45:00,
2013-01-19 01:51:00,51.3,28.0,29.93,ENE,67,3.0,-999.0,40,0.00,,,0.00,Rainwise IP-100,2013-01-19 09:51:00,
2013-01-19 01:56:00,52.0,28.0,29.93,ENE,67,4.4,-999.0,39,0.00,,,0.00,Rainwise IP-100,2013-01-19 09:56:00,
2013-01-19 02:02:00,52.2,28.0,29.93,ENE,67,1.9,-999.0,39,0.00,,,0.00,Rainwise IP-100,2013-01-19 10:02:00,
2013-01-19 02:07:00,51.9,28.0,29.93,ENE,67,0.0,-999.0,39,0.00,,,0.00,Rainwise IP-100,2013-01-19 10:07:00,
2013-01-19 02:12:00,51.5,28.0,29.93,ENE,67,4.0,-999.0,39,0.00,,,0.00,Rainwise IP-100,2013-01-19 10:12:00,
2013-01-19 02:17:00,51.2,28.0,29.93,ENE,67,3.7,-999.0,40,0.00,,,0.00,Rainwise IP-100,2013-01-19 10:17:00,
2013-01-19 02:22:00,51.4,28.0,29.94,ENE,67,3.3,-999.0,40,0.00,,,0.00,Rainwise IP-100,2013-01-19 10:22:00,
2013-01-19 02:27:00,51.6,28.0,29.93,ENE,67,3.3,-999.0,39,0.00,,,0.00,Rainwise IP-100,2013-01-19 10:27:00,
2013-01-19 02:32:00,51.6,28.0,29.93,East,90,2.6,-999.0,39,0.00,,,0.00,Rainwise IP-100,2013-01-19 10:32:00,
2013-01-19 02:38:00,51.7,28.0,29.93,ENE,67,2.3,-999.0,39,0.00,,,0.00,Rainwise IP-100,2013-01-19 10:38:00,
2013-01-19 02:43:00,51.7,28.0,29.93,ENE,67,2.1,-999.0,38,0.00,,,0.00,Rainwise IP-100,2013-01-19 10:43:00,
2013-01-19 02:48:00,51.7,28.0,29.93,ENE,67,3.0,-999.0,38,0.00,,,0.00,Rainwise IP-100,2013-01-19 10:48:00,
2013-01-19 02:54:00,51.7,28.0,29.93,ENE,67,3.0,-999.0,38,0.00,,,0.00,Rainwise IP-100,2013-01-19 10:54:00,
2013-01-19 02:59:00,51.9,28.0,29.93,ENE,67,4.7,-999.0,38,0.00,,,0.00,Rainwise IP-100,2013-01-19 10:59:00,
2013-01-19 03:04:00,52.2,26.0,29.93,East,90,3.0,-999.0,37,0.00,,,0.00,Rainwise IP-100,2013-01-19 11:04:00,
2013-01-19 03:10:00,52.2,26.0,29.93,East,90,0.0,-999.0,37,0.00,,,0.00,Rainwise IP-100,2013-01-19 11:10:00,
2013-01-19 04:48:00,52.1,26.0,29.94,ENE,67,3.3,-999.0,36,0.00,,,0.00,Rainwise IP-100,2013-01-19 12:48:00,
2013-01-19 04:49:00,52.1,26.0,29.94,ENE,67,2.8,-999.0,36,0.00,,,0.00,Rainwise IP-100,2013-01-19 12:49:00,
2013-01-19 04:50:00,52.1,26.0,29.94,ENE,67,2.1,-999.0,36,0.00,,,0.00,Rainwise IP-100,2013-01-19 12:50:00,
2013-01-19 04:55:00,52.0,26.0,29.94,East,90,3.3,-999.0,36,0.00,,,0.00,Rainwise IP-100,2013-01-19 12:55:00,
2013-01-19 05:01:00,52.4,26.0,29.95,ENE,67,6.5,-999.0,36,0.00,,,0.00,Rainwise IP-100,2013-01-19 13:01:00,
2013-01-19 05:06:00,53.2,26.0,29.95,ENE,67,6.3,-999.0,35,0.00,,,0.00,Rainwise IP-100,2013-01-19 13:06:00,
2013-01-19 05:11:00,53.2,26.0,29.95,ENE,67,2.6,-999.0,35,0.00,,,0.00,Rainwise IP-100,2013-01-19 13:11:00,
2013-01-19 05:16:00,52.4,26.0,29.95,ENE,67,2.3,-999.0,35,0.00,,,0.00,Rainwise IP-100,2013-01-19 13:16:00,
2013-01-19 05:21:00,51.6,26.0,29.95,NNE,22,1.9,-999.0,36,0.00,,,0.00,Rainwise IP-100,2013-01-19 13:21:00,
2013-01-19 05:26:00,50.9,26.0,29.95,NE,45,2.8,-999.0,37,0.00,,,0.00,Rainwise IP-100,2013-01-19 13:26:00,
2013-01-19 05:32:00,50.3,26.0,29.95,NNE,22,4.0,-999.0,38,0.00,,,0.00,Rainwise IP-100,2013-01-19 13:32:00,
2013-01-19 05:37:00,50.0,26.0,29.95,NNE,22,4.0,-999.0,39,0.00,,,0.00,Rainwise IP-100,2013-01-19 13:37:00,
2013-01-19 05:42:00,50.0,26.0,29.95,ENE,67,3.5,-999.0,39,0.00,,,0.00,Rainwise IP-100,2013-01-19 13:42:00,
2013-01-19 05:47:00,50.0,26.0,29.95,ENE,67,3.5,-999.0,39,0.00,,,0.00,Rainwise IP-100,2013-01-19 13:47:00,
2013-01-19 05:53:00,49.8,26.0,29.95,NE,45,4.2,-999.0,39,0.00,,,0.00,Rainwise IP-100,2013-01-19 13:53:00,
2013-01-19 05:58:00,50.0,26.0,29.95,ENE,67,3.3,-999.0,39,0.00,,,0.00,Rainwise IP-100,2013-01-19 13:58:00,
2013-01-19 06:03:00,50.1,26.0,29.95,NE,45,3.3,-999.0,38,0.00,,,0.00,Rainwise IP-100,2013-01-19 14:03:00,
2013-01-19 06:08:00,50.1,26.0,29.96,ENE,67,3.5,-999.0,38,0.00,,,0.00,Rainwise IP-100,2013-01-19 14:08:00,
2013-01-19 06:13:00,50.3,26.0,29.96,ENE,67,5.1,-999.0,38,0.00,,,0.00,Rainwise IP-100,2013-01-19 14:13:00,
2013-01-19 06:18:00,50.8,26.0,29.96,ENE,67,4.9,-999.0,37,0.00,,,0.00,Rainwise IP-100,2013-01-19 14:18:00,
2013-01-19 06:24:00,51.3,26.0,29.96,ENE,67,3.3,-999.0,36,0.00,,,0.00,Rainwise IP-100,2013-01-19 14:24:00,
2013-01-19 06:29:00,51.3,26.0,29.96,East,90,3.3,-999.0,36,0.00,,,0.00,Rainwise IP-100,2013-01-19 14:29:00,
2013-01-19 06:34:00,51.2,26.0,29.96,ENE,67,3.7,-999.0,36,0.00,,,0.00,Rainwise IP-100,2013-01-19 14:34:00,
2013-01-19 06:39:00,51.0,26.0,29.96,ENE,67,3.7,-999.0,36,0.00,,,0.00,Rainwise IP-100,2013-01-19 14:39:00,
2013-01-19 06:44:00,50.9,26.0,29.96,ENE,67,3.5,-999.0,36,0.00,,,0.00,Rainwise IP-100,2013-01-19 14:44:00,
2013-01-19 06:49:00,51.0,26.0,29.97,ENE,67,3.3,-999.0,36,0.00,,,0.00,Rainwise IP-100,2013-01-19 14:49:00,
2013-01-19 06:54:00,51.4,26.0,29.97,ENE,67,2.3,-999.0,36,0.00,,,0.00,Rainwise IP-100,2013-01-19 14:54:00,
2013-01-19 06:59:00,52.0,26.0,29.97,ENE,67,4.2,-999.0,35,0.00,,,0.00,Rainwise IP-100,2013-01-19 14:59:00,
2013-01-19 07:04:00,52.6,24.0,29.97,ENE,67,3.3,-999.0,33,0.00,,,0.00,Rainwise IP-100,2013-01-19 15:04:00,
2013-01-19 07:09:00,53.0,24.0,29.98,ENE,67,4.0,-999.0,33,0.00,,,0.00,Rainwise IP-100,2013-01-19 15:09:00,
2013-01-19 07:14:00,53.0,24.0,29.98,ENE,67,4.9,-999.0,33,0.00,,,0.00,Rainwise IP-100,2013-01-19 15:14:00,
2013-01-19 07:19:00,53.3,24.0,29.98,ENE,67,5.4,-999.0,32,0.00,,,0.00,Rainwise IP-100,2013-01-19 15:19:00,
2013-01-19 07:24:00,53.6,24.0,29.98,ENE,67,4.0,-999.0,32,0.00,,,0.00,Rainwise IP-100,2013-01-19 15:24:00,
2013-01-19 07:29:00,53.7,24.0,29.98,East,90,3.0,-999.0,32,0.00,,,0.00,Rainwise IP-100,2013-01-19 15:29:00,
2013-01-19 07:34:00,53.7,26.0,29.98,ENE,67,1.9,-999.0,33,0.00,,,0.00,Rainwise IP-100,2013-01-19 15:34:00,
2013-01-19 07:39:00,53.6,26.0,29.98,ENE,67,3.3,-999.0,34,0.00,,,0.00,Rainwise IP-100,2013-01-19 15:39:00,
2013-01-19 07:44:00,53.9,26.0,29.99,ENE,67,2.6,-999.0,34,0.00,,,0.00,Rainwise IP-100,2013-01-19 15:44:00,
2013-01-19 07:49:00,54.7,26.0,29.99,East,90,4.0,-999.0,33,0.00,,,0.00,Rainwise IP-100,2013-01-19 15:49:00,
2013-01-19 07:54:00,55.4,28.0,29.99,ENE,67,3.3,-999.0,33,0.00,,,0.00,Rainwise IP-100,2013-01-19 15:54:00,
2013-01-19 07:59:00,56.2,26.0,29.99,East,90,2.6,-999.0,32,0.00,,,0.00,Rainwise IP-100,2013-01-19 15:59:00,
2013-01-19 08:04:00,56.9,28.0,29.99,East,90,3.3,-999.0,32,0.00,,,0.00,Rainwise IP-100,2013-01-19 16:04:00,
2013-01-19 08:09:00,57.6,28.0,30.00,ENE,67,4.0,-999.0,31,0.00,,,0.00,Rainwise IP-100,2013-01-19 16:09:00,
2013-01-19 08:14:00,58.4,28.0,29.99,East,90,1.2,-999.0,30,0.00,,,0.00,Rainwise IP-100,2013-01-19 16:14:00,
2013-01-19 08:19:00,58.8,29.0,30.00,East,90,3.0,-999.0,31,0.00,,,0.00,Rainwise IP-100,2013-01-19 16:19:00,
2013-01-19 08:24:00,59.0,29.0,30.00,ENE,67,5.6,-999.0,31,0.00,,,0.00,Rainwise IP-100,2013-01-19 16:24:00,
2013-01-19 08:29:00,59.4,28.0,30.00,ENE,67,1.2,-999.0,30,0.00,,,0.00,Rainwise IP-100,2013-01-19 16:29:00,
2013-01-19 08:34:00,60.0,28.0,30.00,ENE,67,3.7,-999.0,29,0.00,,,0.00,Rainwise IP-100,2013-01-19 16:34:00,
2013-01-19 08:39:00,60.4,28.0,30.00,ENE,67,2.3,-999.0,29,0.00,,,0.00,Rainwise IP-100,2013-01-19 16:39:00,
2013-01-19 08:44:00,60.9,29.0,30.00,East,90,4.7,-999.0,29,0.00,,,0.00,Rainwise IP-100,2013-01-19 16:44:00,
2013-01-19 08:49:00,61.7,28.0,30.01,ENE,67,1.6,-999.0,28,0.00,,,0.00,Rainwise IP-100,2013-01-19 16:49:00,
2013-01-19 08:54:00,62.4,28.0,30.00,ENE,67,3.3,-999.0,27,0.00,,,0.00,Rainwise IP-100,2013-01-19 16:54:00,
2013-01-19 08:59:00,62.8,29.0,30.00,East,90,2.1,-999.0,27,0.00,,,0.00,Rainwise IP-100,2013-01-19 16:59:00,
2013-01-19 09:04:00,63.4,29.0,30.00,ENE,67,2.1,-999.0,27,0.00,,,0.00,Rainwise IP-100,2013-01-19 17:04:00,
2013-01-19 09:09:00,64.1,29.0,30.01,East,90,3.0,-999.0,27,0.00,,,0.00,Rainwise IP-100,2013-01-19 17:09:00,
2013-01-19 09:14:00,64.8,29.0,30.01,ENE,67,2.1,-999.0,26,0.00,,,0.00,Rainwise IP-100,2013-01-19 17:14:00,
2013-01-19 09:19:00,65.4,29.0,30.01,ENE,67,3.5,-999.0,25,0.00,,,0.00,Rainwise IP-100,2013-01-19 17:19:00,
2013-01-19 09:24:00,66.3,29.0,30.01,NNE,22,3.5,-999.0,24,0.00,,,0.00,Rainwise IP-100,2013-01-19 17:24:00,
2013-01-19 09:29:00,67.2,29.0,30.01,NNE,22,1.2,-999.0,24,0.00,,,0.00,Rainwise IP-100,2013-01-19 17:29:00,
2013-01-19 09:34:00,67.6,29.0,30.01,WSW,247,0.0,-999.0,24,0.00,,,0.00,Rainwise IP-100,2013-01-19 17:34:00,
2013-01-19 09:39:00,67.6,31.0,30.01,WSW,247,0.0,-999.0,25,0.00,,,0.00,Rainwise IP-100,2013-01-19 17:39:00,
2013-01-19 09:44:00,68.0,31.0,30.01,ENE,67,1.2,-999.0,24,0.00,,,0.00,Rainwise IP-100,2013-01-19 17:44:00,
2013-01-19 09:49:00,69.0,29.0,30.01,South,180,0.0,-999.0,22,0.00,,,0.00,Rainwise IP-100,2013-01-19 17:49:00,
2013-01-19 09:54:00,69.2,29.0,30.00,WSW,247,1.2,-999.0,22,0.00,,,0.00,Rainwise IP-100,2013-01-19 17:54:00,
2013-01-19 09:59:00,68.6,32.0,30.00,WSW,247,2.1,-999.0,25,0.00,,,0.00,Rainwise IP-100,2013-01-19 17:59:00,
2013-01-19 10:04:00,68.7,32.0,30.00,WSW,247,0.0,-999.0,26,0.00,,,0.00,Rainwise IP-100,2013-01-19 18:04:00,
2013-01-19 10:09:00,68.7,32.0,30.00,WSW,247,1.2,-999.0,26,0.00,,,0.00,Rainwise IP-100,2013-01-19 18:09:00,
2013-01-19 10:14:00,68.0,33.0,30.00,WSW,247,2.3,-999.0,27,0.00,,,0.00,Rainwise IP-100,2013-01-19 18:14:00,
2013-01-19 10:19:00,67.4,32.0,30.00,WSW,247,1.6,-999.0,27,0.00,,,0.00,Rainwise IP-100,2013-01-19 18:19:00,
2013-01-19 10:24:00,67.5,32.0,30.00,SSE,157,1.2,-999.0,27,0.00,,,0.00,Rainwise IP-100,2013-01-19 18:24:00,
2013-01-19 10:29:00,67.6,32.0,30.00,SSW,202,0.0,-999.0,26,0.00,,,0.00,Rainwise IP-100,2013-01-19 18:29:00,
2013-01-19 10:34:00,68.0,32.0,29.99,WSW,247,0.0,-999.0,26,0.00,,,0.00,Rainwise IP-100,2013-01-19 18:34:00,
2013-01-19 10:39:00,68.0,32.0,29.99,WSW,247,0.0,-999.0,26,0.00,,,0.00,Rainwise IP-100,2013-01-19 18:39:00,
2013-01-19 10:44:00,68.0,32.0,29.99,WSW,247,0.0,-999.0,26,0.00,,,0.00,Rainwise IP-100,2013-01-19 18:44:00,
2013-01-19 10:49:00,69.3,31.0,29.99,SSE,157,1.2,-999.0,24,0.00,,,0.00,Rainwise IP-100,2013-01-19 18:49:00,
2013-01-19 10:54:00,69.3,31.0,29.98,WSW,247,3.5,-999.0,23,0.00,,,0.00,Rainwise IP-100,2013-01-19 18:54:00,
2013-01-19 10:59:00,69.7,29.0,29.98,SSW,202,2.3,-999.0,22,0.00,,,0.00,Rainwise IP-100,2013-01-19 18:59:00,
2013-01-19 11:04:00,70.3,31.0,29.98,SW,225,0.0,-999.0,22,0.00,,,0.00,Rainwise IP-100,2013-01-19 19:04:00,
2013-01-19 11:09:00,70.8,29.0,29.98,SSE,157,0.0,-999.0,21,0.00,,,0.00,Rainwise IP-100,2013-01-19 19:09:00,
2013-01-19 11:14:00,71.0,29.0,29.98,WNW,292,1.9,-999.0,21,0.00,,,0.00,Rainwise IP-100,2013-01-19 19:14:00,
2013-01-19 11:19:00,71.2,28.0,29.98,WSW,247,4.9,-999.0,20,0.00,,,0.00,Rainwise IP-100,2013-01-19 19:19:00,
2013-01-19 11:24:00,71.3,29.0,29.97,WSW,247,3.7,-999.0,21,0.00,,,0.00,Rainwise IP-100,2013-01-19 19:24:00,
2013-01-19 11:29:00,71.2,29.0,29.97,WSW,247,4.2,-999.0,21,0.00,,,0.00,Rainwise IP-100,2013-01-19 19:29:00,
2013-01-19 11:34:00,71.7,29.0,29.96,WSW,247,3.0,-999.0,21,0.00,,,0.00,Rainwise IP-100,2013-01-19 19:34:00,
2013-01-19 11:39:00,72.0,31.0,29.96,WSW,247,2.3,-999.0,21,0.00,,,0.00,Rainwise IP-100,2013-01-19 19:39:00,
2013-01-19 11:44:00,72.0,29.0,29.95,WSW,247,2.8,-999.0,20,0.00,,,0.00,Rainwise IP-100,2013-01-19 19:44:00,
2013-01-19 11:49:00,72.6,29.0,29.95,SSW,202,0.0,-999.0,20,0.00,,,0.00,Rainwise IP-100,2013-01-19 19:49:00,
2013-01-19 11:54:00,73.3,29.0,29.95,SSE,157,1.4,-999.0,19,0.00,,,0.00,Rainwise IP-100,2013-01-19 19:54:00,
2013-01-19 11:59:00,73.6,29.0,29.94,SSW,202,6.8,-999.0,19,0.00,,,0.00,Rainwise IP-100,2013-01-19 19:59:00,
2013-01-19 12:04:00,73.6,28.0,29.94,SSW,202,1.9,-999.0,18,0.00,,,0.00,Rainwise IP-100,2013-01-19 20:04:00,
2013-01-19 12:09:00,73.6,28.0,29.94,WNW,292,2.6,-999.0,18,0.00,,,0.00,Rainwise IP-100,2013-01-19 20:09:00,
2013-01-19 12:14:00,73.7,28.0,29.94,WSW,247,0.0,-999.0,18,0.00,,,0.00,Rainwise IP-100,2013-01-19 20:14:00,
2013-01-19 12:19:00,73.7,28.0,29.93,SW,225,3.3,-999.0,18,0.00,,,0.00,Rainwise IP-100,2013-01-19 20:19:00,
2013-01-19 12:24:00,74.0,26.0,29.93,SW,225,2.3,-999.0,17,0.00,,,0.00,Rainwise IP-100,2013-01-19 20:24:00,
2013-01-19 12:29:00,74.3,28.0,29.93,SSE,157,0.0,-999.0,17,0.00,,,0.00,Rainwise IP-100,2013-01-19 20:29:00,
2013-01-19 12:34:00,75.1,29.0,29.93,WSW,247,3.0,-999.0,18,0.00,,,0.00,Rainwise IP-100,2013-01-19 20:34:00,
2013-01-19 12:39:00,75.8,29.0,29.92,SSE,157,1.4,-999.0,18,0.00,,,0.00,Rainwise IP-100,2013-01-19 20:39:00,
2013-01-19 12:44:00,76.2,29.0,29.92,SSW,202,1.6,-999.0,18,0.00,,,0.00,Rainwise IP-100,2013-01-19 20:44:00,
2013-01-19 12:49:00,76.6,29.0,29.92,ENE,67,0.0,-999.0,17,0.00,,,0.00,Rainwise IP-100,2013-01-19 20:49:00,
2013-01-19 12:54:00,76.8,29.0,29.92,SSE,157,1.2,-999.0,17,0.00,,,0.00,Rainwise IP-100,2013-01-19 20:54:00,
2013-01-19 12:59:00,77.0,29.0,29.91,West,270,1.2,-999.0,17,0.00,,,0.00,Rainwise IP-100,2013-01-19 20:59:00,
2013-01-19 13:04:00,76.8,28.0,29.91,WSW,247,2.8,-999.0,16,0.00,,,0.00,Rainwise IP-100,2013-01-19 21:04:00,
2013-01-19 13:09:00,76.6,28.0,29.91,WNW,292,4.0,-999.0,16,0.00,,,0.00,Rainwise IP-100,2013-01-19 21:09:00,
2013-01-19 13:14:00,76.7,28.0,29.91,West,270,5.1,-999.0,16,0.00,,,0.00,Rainwise IP-100,2013-01-19 21:14:00,
2013-01-19 13:19:00,76.8,26.0,29.91,WNW,292,4.9,-999.0,15,0.00,,,0.00,Rainwise IP-100,2013-01-19 21:19:00,
2013-01-19 13:24:00,76.8,26.0,29.91,WNW,292,4.9,-999.0,15,0.00,,,0.00,Rainwise IP-100,2013-01-19 21:24:00,
2013-01-19 13:29:00,77.2,26.0,29.90,West,270,3.5,-999.0,15,0.00,,,0.00,Rainwise IP-100,2013-01-19 21:29:00,
2013-01-19 13:34:00,77.2,26.0,29.90,West,270,3.5,-999.0,15,0.00,,,0.00,Rainwise IP-100,2013-01-19 21:34:00,
2013-01-19 13:39:00,77.7,24.0,29.90,WNW,292,2.8,-999.0,14,0.00,,,0.00,Rainwise IP-100,2013-01-19 21:39:00,
2013-01-19 13:44:00,78.2,26.0,29.90,WNW,292,2.8,-999.0,14,0.00,,,0.00,Rainwise IP-100,2013-01-19 21:44:00,
2013-01-19 13:49:00,78.3,26.0,29.90,WNW,292,4.9,-999.0,14,0.00,,,0.00,Rainwise IP-100,2013-01-19 21:49:00,
2013-01-19 13:54:00,78.3,26.0,29.90,WNW,292,4.9,-999.0,14,0.00,,,0.00,Rainwise IP-100,2013-01-19 21:54:00,
2013-01-19 13:59:00,78.3,26.0,29.90,WNW,292,4.9,-999.0,14,0.00,,,0.00,Rainwise IP-100,2013-01-19 21:59:00,
2013-01-19 14:04:00,78.4,24.0,29.90,WNW,292,3.0,-999.0,13,0.00,,,0.00,Rainwise IP-100,2013-01-19 22:04:00,
2013-01-19 14:09:00,78.0,24.0,29.90,WSW,247,1.9,-999.0,13,0.00,,,0.00,Rainwise IP-100,2013-01-19 22:09:00,
2013-01-19 14:14:00,78.1,24.0,29.89,WNW,292,4.0,-999.0,13,0.00,,,0.00,Rainwise IP-100,2013-01-19 22:14:00,
2013-01-19 14:19:00,78.0,24.0,29.90,NNW,337,5.1,-999.0,13,0.00,,,0.00,Rainwise IP-100,2013-01-19 22:19:00,
2013-01-19 14:24:00,77.4,23.0,29.89,North,360,2.6,-999.0,13,0.00,,,0.00,Rainwise IP-100,2013-01-19 22:24:00,
2013-01-19 14:29:00,77.4,23.0,29.90,NNW,337,3.3,-999.0,13,0.00,,,0.00,Rainwise IP-100,2013-01-19 22:29:00,
2013-01-19 14:34:00,77.6,23.0,29.90,NNW,337,5.4,-999.0,13,0.00,,,0.00,Rainwise IP-100,2013-01-19 22:34:00,
2013-01-19 14:39:00,77.7,23.0,29.90,NNW,337,3.3,-999.0,13,0.00,,,0.00,Rainwise IP-100,2013-01-19 22:39:00,
2013-01-19 14:44:00,77.6,23.0,29.89,NNE,22,4.7,-999.0,13,0.00,,,0.00,Rainwise IP-100,2013-01-19 22:44:00,
2013-01-19 14:49:00,77.2,23.0,29.89,NNW,337,3.3,-999.0,13,0.00,,,0.00,Rainwise IP-100,2013-01-19 22:49:00,
2013-01-19 14:54:00,76.4,23.0,29.89,NW,315,3.3,-999.0,13,0.00,,,0.00,Rainwise IP-100,2013-01-19 22:54:00,
2013-01-19 14:59:00,76.5,23.0,29.89,NNW,337,2.1,-999.0,13,0.00,,,0.00,Rainwise IP-100,2013-01-19 22:59:00,
2013-01-19 15:04:00,76.5,23.0,29.89,NNE,22,1.6,-999.0,13,0.00,,,0.00,Rainwise IP-100,2013-01-19 23:04:00,
2013-01-19 15:09:00,76.5,23.0,29.89,NNE,22,1.6,-999.0,13,0.00,,,0.00,Rainwise IP-100,2013-01-19 23:09:00,
2013-01-19 15:14:00,76.5,23.0,29.89,NNW,337,1.6,-999.0,13,0.00,,,0.00,Rainwise IP-100,2013-01-19 23:14:00,
2013-01-19 15:19:00,75.9,24.0,29.89,NE,45,6.8,-999.0,14,0.00,,,0.00,Rainwise IP-100,2013-01-19 23:19:00,
2013-01-19 15:24:00,75.3,23.0,29.89,NNW,337,4.0,-999.0,14,0.00,,,0.00,Rainwise IP-100,2013-01-19 23:24:00,
2013-01-19 15:29:00,74.3,23.0,29.90,NNW,337,6.5,-999.0,14,0.00,,,0.00,Rainwise IP-100,2013-01-19 23:29:00,
2013-01-19 15:34:00,73.9,24.0,29.89,NNE,22,4.7,-999.0,15,0.00,,,0.00,Rainwise IP-100,2013-01-19 23:34:00,
2013-01-19 15:40:00,72.9,26.0,29.90,NNE,22,6.8,-999.0,17,0.00,,,0.00,Rainwise IP-100,2013-01-19 23:40:00,
2013-01-19 15:45:00,72.0,28.0,29.90,North,360,3.7,-999.0,19,0.00,,,0.00,Rainwise IP-100,2013-01-19 23:45:00,
2013-01-19 15:50:00,71.3,31.0,29.90,NNW,337,3.7,-999.0,22,0.00,,,0.00,Rainwise IP-100,2013-01-19 23:50:00,
2013-01-19 15:55:00,70.6,32.0,29.90,NNW,337,6.1,-999.0,24,0.00,,,0.00,Rainwise IP-100,2013-01-19 23:55:00,
2013-01-19 16:00:00,69.8,33.0,29.90,NNE,22,5.4,-999.0,26,0.00,,,0.00,Rainwise IP-100,2013-01-20 00:00:00,
2013-01-19 16:05:00,68.6,33.0,29.90,NE,45,9.8,-999.0,27,0.00,,,0.00,Rainwise IP-100,2013-01-20 00:05:00,
2013-01-19 16:10:00,67.6,33.0,29.90,North,360,1.4,-999.0,28,0.00,,,0.00,Rainwise IP-100,2013-01-20 00:10:00,
2013-01-19 16:15:00,66.9,32.0,29.90,ENE,67,5.6,-999.0,27,0.00,,,0.00,Rainwise IP-100,2013-01-20 00:15:00,
2013-01-19 16:20:00,66.6,31.0,29.90,ENE,67,7.7,-999.0,26,0.00,,,0.00,Rainwise IP-100,2013-01-20 00:20:00,
2013-01-19 16:25:00,66.4,29.0,29.90,NNE,22,8.2,-999.0,25,0.00,,,0.00,Rainwise IP-100,2013-01-20 00:25:00,
2013-01-19 16:30:00,66.2,29.0,29.90,NNE,22,4.7,-999.0,25,0.00,,,0.00,Rainwise IP-100,2013-01-20 00:30:00,
2013-01-19 16:35:00,66.2,29.0,29.90,ENE,67,3.0,-999.0,25,0.00,,,0.00,Rainwise IP-100,2013-01-20 00:35:00,
2013-01-19 16:40:00,66.1,28.0,29.91,NNE,22,2.3,-999.0,24,0.00,,,0.00,Rainwise IP-100,2013-01-20 00:40:00,
2013-01-19 16:45:00,66.0,29.0,29.91,North,360,3.7,-999.0,25,0.00,,,0.00,Rainwise IP-100,2013-01-20 00:45:00,
2013-01-19 16:50:00,65.8,31.0,29.91,ENE,67,2.8,-999.0,26,0.00,,,0.00,Rainwise IP-100,2013-01-20 00:50:00,
2013-01-19 16:55:00,65.5,31.0,29.91,NE,45,5.4,-999.0,27,0.00,,,0.00,Rainwise IP-100,2013-01-20 00:55:00,
2013-01-19 17:00:00,65.1,31.0,29.91,ENE,67,5.8,-999.0,27,0.00,,,0.00,Rainwise IP-100,2013-01-20 01:00:00,
2013-01-19 17:05:00,64.5,31.0,29.91,NE,45,4.0,-999.0,28,0.00,,,0.00,Rainwise IP-100,2013-01-20 01:05:00,
2013-01-19 17:10:00,64.0,29.0,29.91,NE,45,2.3,-999.0,27,0.00,,,0.00,Rainwise IP-100,2013-01-20 01:10:00,
2013-01-19 17:15:00,63.5,29.0,29.92,NNE,22,2.6,-999.0,27,0.00,,,0.00,Rainwise IP-100,2013-01-20 01:15:00,
2013-01-19 17:20:00,63.1,28.0,29.91,ENE,67,3.0,-999.0,26,0.00,,,0.00,Rainwise IP-100,2013-01-20 01:20:00,
2013-01-19 17:25:00,62.8,28.0,29.92,NNE,22,3.0,-999.0,26,0.00,,,0.00,Rainwise IP-100,2013-01-20 01:25:00,
2013-01-19 17:30:00,62.6,26.0,29.92,North,360,5.6,-999.0,25,0.00,,,0.00,Rainwise IP-100,2013-01-20 01:30:00,
2013-01-19 17:35:00,62.6,26.0,29.92,ENE,67,2.3,-999.0,24,0.00,,,0.00,Rainwise IP-100,2013-01-20 01:35:00,
2013-01-19 17:40:00,62.6,26.0,29.92,NNE,22,2.8,-999.0,24,0.00,,,0.00,Rainwise IP-100,2013-01-20 01:40:00,
2013-01-19 17:45:00,62.5,24.0,29.92,ENE,67,1.4,-999.0,23,0.00,,,0.00,Rainwise IP-100,2013-01-20 01:45:00,
2013-01-19 17:50:00,62.3,24.0,29.92,NNE,22,3.3,-999.0,23,0.00,,,0.00,Rainwise IP-100,2013-01-20 01:50:00,
2013-01-19 17:55:00,62.2,24.0,29.92,North,360,1.4,-999.0,23,0.00,,,0.00,Rainwise IP-100,2013-01-20 01:55:00,
2013-01-19 18:00:00,62.0,24.0,29.93,NNE,22,0.0,-999.0,23,0.00,,,0.00,Rainwise IP-100,2013-01-20 02:00:00,
2013-01-19 18:05:00,61.8,24.0,29.93,NNW,337,1.4,-999.0,23,0.00,,,0.00,Rainwise IP-100,2013-01-20 02:05:00,
2013-01-19 18:10:00,61.7,24.0,29.93,NE,45,1.9,-999.0,23,0.00,,,0.00,Rainwise IP-100,2013-01-20 02:10:00,
2013-01-19 18:15:00,61.5,24.0,29.93,ESE,112,0.0,-999.0,23,0.00,,,0.00,Rainwise IP-100,2013-01-20 02:15:00,
2013-01-19 18:20:00,61.3,24.0,29.93,ENE,67,1.6,-999.0,23,0.00,,,0.00,Rainwise IP-100,2013-01-20 02:20:00,
2013-01-19 18:25:00,61.1,23.0,29.94,WNW,292,0.0,-999.0,23,0.00,,,0.00,Rainwise IP-100,2013-01-20 02:25:00,
2013-01-19 18:30:00,60.8,24.0,29.94,ENE,67,2.3,-999.0,24,0.00,,,0.00,Rainwise IP-100,2013-01-20 02:30:00,
2013-01-19 18:35:00,60.7,24.0,29.94,ENE,67,2.6,-999.0,24,0.00,,,0.00,Rainwise IP-100,2013-01-20 02:35:00,
2013-01-19 18:40:00,60.5,24.0,29.94,ENE,67,1.6,-999.0,24,0.00,,,0.00,Rainwise IP-100,2013-01-20 02:40:00,
2013-01-19 18:45:00,60.4,24.0,29.94,ENE,67,1.6,-999.0,24,0.00,,,0.00,Rainwise IP-100,2013-01-20 02:45:00,
2013-01-19 18:50:00,60.4,24.0,29.94,ENE,67,1.9,-999.0,24,0.00,,,0.00,Rainwise IP-100,2013-01-20 02:50:00,
2013-01-19 18:55:00,60.3,24.0,29.94,ENE,67,2.6,-999.0,24,0.00,,,0.00,Rainwise IP-100,2013-01-20 02:55:00,
2013-01-19 19:00:00,60.2,24.0,29.94,ENE,67,3.3,-999.0,25,0.00,,,0.00,Rainwise IP-100,2013-01-20 03:00:00,
2013-01-19 19:05:00,59.9,24.0,29.94,ENE,67,2.8,-999.0,25,0.00,,,0.00,Rainwise IP-100,2013-01-20 03:05:00,
2013-01-19 19:10:00,59.8,24.0,29.94,ENE,67,2.1,-999.0,25,0.00,,,0.00,Rainwise IP-100,2013-01-20 03:10:00,
2013-01-19 19:15:00,59.5,24.0,29.95,ENE,67,2.3,-999.0,25,0.00,,,0.00,Rainwise IP-100,2013-01-20 03:15:00,
2013-01-19 19:20:00,59.1,24.0,29.94,ENE,67,2.3,-999.0,26,0.00,,,0.00,Rainwise IP-100,2013-01-20 03:20:00,
2013-01-19 19:25:00,58.9,26.0,29.95,ENE,67,3.0,-999.0,27,0.00,,,0.00,Rainwise IP-100,2013-01-20 03:25:00,
2013-01-19 19:30:00,58.8,26.0,29.95,ENE,67,2.6,-999.0,27,0.00,,,0.00,Rainwise IP-100,2013-01-20 03:30:00,
2013-01-19 19:35:00,58.8,26.0,29.95,ENE,67,1.4,-999.0,27,0.00,,,0.00,Rainwise IP-100,2013-01-20 03:35:00,
2013-01-19 19:40:00,58.5,26.0,29.95,ENE,67,2.3,-999.0,27,0.00,,,0.00,Rainwise IP-100,2013-01-20 03:40:00,
2013-01-19 19:45:00,58.2,26.0,29.95,ENE,67,3.0,-999.0,28,0.00,,,0.00,Rainwise IP-100,2013-01-20 03:45:00,
2013-01-19 19:50:00,58.1,26.0,29.95,ENE,67,3.5,-999.0,28,0.00,,,0.00,Rainwise IP-100,2013-01-20 03:50:00,
2013-01-19 19:55:00,58.0,26.0,29.95,ENE,67,3.0,-999.0,28,0.00,,,0.00,Rainwise IP-100,2013-01-20 03:55:00,
2013-01-19 20:00:00,57.8,26.0,29.95,ENE,67,3.5,-999.0,29,0.00,,,0.00,Rainwise IP-100,2013-01-20 04:00:00,
2013-01-19 20:05:00,58.0,28.0,29.95,ENE,67,3.0,-999.0,30,0.00,,,0.00,Rainwise IP-100,2013-01-20 04:05:00,
2013-01-19 20:10:00,58.7,28.0,29.96,ENE,67,2.8,-999.0,29,0.00,,,0.00,Rainwise IP-100,2013-01-20 04:10:00,
2013-01-19 20:15:00,59.1,28.0,29.96,ENE,67,3.7,-999.0,29,0.00,,,0.00,Rainwise IP-100,2013-01-20 04:15:00,
2013-01-19 20:20:00,59.2,28.0,29.96,ENE,67,2.8,-999.0,29,0.00,,,0.00,Rainwise IP-100,2013-01-20 04:20:00,
2013-01-19 20:25:00,59.4,28.0,29.96,ENE,67,2.8,-999.0,29,0.00,,,0.00,Rainwise IP-100,2013-01-20 04:25:00,
2013-01-19 20:30:00,59.6,26.0,29.95,ENE,67,2.6,-999.0,28,0.00,,,0.00,Rainwise IP-100,2013-01-20 04:30:00,
2013-01-19 20:35:00,59.7,26.0,29.95,ENE,67,3.3,-999.0,28,0.00,,,0.00,Rainwise IP-100,2013-01-20 04:35:00,
2013-01-19 20:40:00,59.5,26.0,29.96,ENE,67,3.7,-999.0,28,0.00,,,0.00,Rainwise IP-100,2013-01-20 04:40:00,
2013-01-19 20:45:00,58.9,28.0,29.96,ENE,67,3.3,-999.0,30,0.00,,,0.00,Rainwise IP-100,2013-01-20 04:45:00,
2013-01-19 20:50:00,58.4,28.0,29.96,SSW,202,0.0,-999.0,31,0.00,,,0.00,Rainwise IP-100,2013-01-20 04:50:00,
2013-01-19 20:55:00,57.7,28.0,29.96,SSW,202,0.0,-999.0,32,0.00,,,0.00,Rainwise IP-100,2013-01-20 04:55:00,
2013-01-19 21:01:00,56.7,28.0,29.97,SSW,202,0.0,-999.0,33,0.00,,,0.00,Rainwise IP-100,2013-01-20 05:01:00,
2013-01-19 21:06:00,56.1,28.0,29.97,SSW,202,0.0,-999.0,34,0.00,,,0.00,Rainwise IP-100,2013-01-20 05:06:00,
2013-01-19 21:11:00,55.7,28.0,29.96,NNE,22,2.6,-999.0,34,0.00,,,0.00,Rainwise IP-100,2013-01-20 05:11:00,
2013-01-19 21:16:00,55.6,28.0,29.96,ENE,67,2.8,-999.0,34,0.00,,,0.00,Rainwise IP-100,2013-01-20 05:16:00,
2013-01-19 21:21:00,55.7,29.0,29.97,ENE,67,0.0,-999.0,36,0.00,,,0.00,Rainwise IP-100,2013-01-20 05:21:00,
2013-01-19 21:26:00,55.9,29.0,29.97,ENE,67,0.0,-999.0,36,0.00,,,0.00,Rainwise IP-100,2013-01-20 05:26:00,
2013-01-19 21:31:00,55.9,29.0,29.97,ENE,67,2.1,-999.0,36,0.00,,,0.00,Rainwise IP-100,2013-01-20 05:31:00,
2013-01-19 21:36:00,56.1,29.0,29.97,ENE,67,1.6,-999.0,36,0.00,,,0.00,Rainwise IP-100,2013-01-20 05:36:00,
2013-01-19 21:41:00,56.0,31.0,29.97,ENE,67,2.1,-999.0,37,0.00,,,0.00,Rainwise IP-100,2013-01-20 05:41:00,
2013-01-19 21:46:00,55.4,31.0,29.97,ENE,67,1.6,-999.0,38,0.00,,,0.00,Rainwise IP-100,2013-01-20 05:46:00,
2013-01-19 21:51:00,54.8,31.0,29.97,ENE,67,0.0,-999.0,38,0.00,,,0.00,Rainwise IP-100,2013-01-20 05:51:00,
2013-01-19 21:56:00,54.9,31.0,29.97,ENE,67,1.6,-999.0,38,0.00,,,0.00,Rainwise IP-100,2013-01-20 05:56:00,
2013-01-19 22:01:00,55.3,31.0,29.97,ENE,67,1.6,-999.0,38,0.00,,,0.00,Rainwise IP-100,2013-01-20 06:01:00,
2013-01-19 22:06:00,56.0,31.0,29.97,ENE,67,0.0,-999.0,37,0.00,,,0.00,Rainwise IP-100,2013-01-20 06:06:00,
2013-01-19 22:11:00,56.3,31.0,29.97,ENE,67,0.0,-999.0,36,0.00,,,0.00,Rainwise IP-100,2013-01-20 06:11:00,
2013-01-19 22:16:00,56.1,29.0,29.97,ENE,67,1.6,-999.0,36,0.00,,,0.00,Rainwise IP-100,2013-01-20 06:16:00,
2013-01-19 22:21:00,56.0,31.0,29.97,ENE,67,1.2,-999.0,37,0.00,,,0.00,Rainwise IP-100,2013-01-20 06:21:00,
2013-01-19 22:26:00,55.8,31.0,29.97,ENE,67,1.2,-999.0,37,0.00,,,0.00,Rainwise IP-100,2013-01-20 06:26:00,
2013-01-19 22:31:00,55.7,31.0,29.98,ENE,67,1.4,-999.0,38,0.00,,,0.00,Rainwise IP-100,2013-01-20 06:31:00,
2013-01-19 22:36:00,55.9,31.0,29.97,ENE,67,1.2,-999.0,38,0.00,,,0.00,Rainwise IP-100,2013-01-20 06:36:00,
2013-01-19 22:41:00,55.7,31.0,29.98,ENE,67,1.4,-999.0,38,0.00,,,0.00,Rainwise IP-100,2013-01-20 06:41:00,
2013-01-19 22:46:00,55.3,31.0,29.97,ENE,67,1.4,-999.0,38,0.00,,,0.00,Rainwise IP-100,2013-01-20 06:46:00,
2013-01-19 22:51:00,55.4,29.0,29.98,ENE,67,1.6,-999.0,37,0.00,,,0.00,Rainwise IP-100,2013-01-20 06:51:00,
2013-01-19 22:56:00,55.6,29.0,29.97,ENE,67,0.0,-999.0,36,0.00,,,0.00,Rainwise IP-100,2013-01-20 06:56:00,
2013-01-19 23:01:00,55.5,29.0,29.97,ENE,67,1.4,-999.0,35,0.00,,,0.00,Rainwise IP-100,2013-01-20 07:01:00,
2013-01-19 23:06:00,55.5,28.0,29.97,ENE,67,0.0,-999.0,34,0.00,,,0.00,Rainwise IP-100,2013-01-20 07:06:00,
2013-01-19 23:11:00,55.6,26.0,29.97,ENE,67,1.4,-999.0,32,0.00,,,0.00,Rainwise IP-100,2013-01-20 07:11:00,
2013-01-19 23:16:00,55.9,26.0,29.97,ENE,67,1.6,-999.0,31,0.00,,,0.00,Rainwise IP-100,2013-01-20 07:16:00,
2013-01-19 23:21:00,56.1,26.0,29.97,ENE,67,4.0,-999.0,31,0.00,,,0.00,Rainwise IP-100,2013-01-20 07:21:00,
2013-01-19 23:26:00,56.4,26.0,29.97,ENE,67,4.4,-999.0,31,0.00,,,0.00,Rainwise IP-100,2013-01-20 07:26:00,
2013-01-19 23:31:00,57.1,26.0,29.97,ENE,67,3.7,-999.0,29,0.00,,,0.00,Rainwise IP-100,2013-01-20 07:31:00,
2013-01-19 23:36:00,57.7,24.0,29.97,ENE,67,3.5,-999.0,28,0.00,,,0.00,Rainwise IP-100,2013-01-20 07:36:00,
2013-01-19 23:41:00,57.8,26.0,29.97,ENE,67,2.6,-999.0,28,0.00,,,0.00,Rainwise IP-100,2013-01-20 07:41:00,
2013-01-19 23:46:00,57.2,24.0,29.96,ENE,67,1.4,-999.0,28,0.00,,,0.00,Rainwise IP-100,2013-01-20 07:46:00,
2013-01-19 23:51:00,56.5,24.0,29.97,ENE,67,3.0,-999.0,29,0.00,,,0.00,Rainwise IP-100,2013-01-20 07:51:00,
2013-01-19 23:56:00,56.4,24.0,29.96,ENE,67,3.0,-999.0,29,0.00,,,0.00,Rainwise IP-100,2013-01-20 07:56:00,